Location: Alladorf
(49.9620°N, 11.3790°E)
Time: 21:32:17
(UTC+00:00)

USA 306 - Pass Details

Date: 29 November 2020
Orbit: 565 x 579 km, 54.0° (Epoch: 22 January)

Event Time Altitude Azimuth Distance (km) Brightness Sun altitude
Exits shadow 05:49:10 12° 295° (WNW) 1,748 4.7 -9.3°
Maximum altitude 05:53:06 74° 21° (NNE) 607 3.0 -8.7°
Drops below altitude 10° 05:57:25 10° 107° (ESE) 1,891 7.2 -8.1°
Sets 05:59:41 0° 109° (ESE) 2,787 8.9 -7.7°
